Weather Roundup
Issued by NWS Chicago, IL

Home | Current Version | Previous Version | Text Only | Print | Product List | Glossary On
Versions: 1 2 3 4 5 6 7 8 9 10 11 12 13 14 15 16 17 18 19 20 21 22 23 24 25 26 27 28 29 30 31 32 33 34 35 36 37 38 39 40 41 42 43 44 45 46 47 48 49 50
000
NZUS59 KLOT 230403
HRRLOT

CHICAGO AREA WEATHER ROUNDUP
NATIONAL WEATHER SERVICE CHICAGO/ROMEOVILLE IL
1100 PM CDT SUN APR 22 2018

NOTE: "FAIR" INDICATES FEW OR NO CLOUDS BELOW 12,000 FEET WITH NO
SIGNIFICANT WEATHER AND/OR OBSTRUCTIONS TO VISIBILITY.

* THESE STATIONS ARE NOT UNDER NWS QUALITY CONTROL. THEY ALSO MAY NOT
  REPORT WEATHER SUCH AS PRECIPITATION OR FOG.

ILZ005-006-012>014-019>023-230500-
NORTHEAST ILLINOIS

CITY           SKY/WX    TMP DP  RH WIND       PRES   REMARKS
OHARE          MOCLDY    46  28  49 NE12      30.23F
MIDWAY         MOCLDY    50  29  44 E9        30.24F
AURORA           N/A     47  26  44 NE10      30.23F
LANSING*         N/A     41  36  80 NE3       30.24S
JOLIET*          N/A     49  30  48 NE9       30.22F
WAUKEGAN         N/A     44  27  51 NE8       30.25F
DUPAGE AIRPORT   N/A     45  28  51 NE9       30.23F
WHEELING         N/A     45  29  53 NE6       30.27F
KANKAKEE*        N/A     44  32  63 NE9       30.22S
MORRIS*          N/A     46  30  54 NE6       30.21F
LEWIS AIRPORT*   N/A     46  30  52 NE13      30.23F
NORTHERLY ISL    N/A     41  33  73 N8          N/A
$$

WIZ051-052-058>065-066-070>072-230500-
SOUTHEAST WISCONSIN

CITY           SKY/WX    TMP DP  RH WIND       PRES   REMARKS
MILWAUKEE        N/A     43  28  55 CALM      30.28F
KENOSHA*         N/A     43  27  53 N3        30.27F
RACINE*          N/A     40  27  59 N6        30.29F
BURLINGTON       N/A     40  26  57 CALM      30.27F
WAUKESHA         N/A     37  25  60 NE5       30.29F
WEST BEND        N/A     36  28  75 CALM      30.29F
$$

INZ001>003-010>013-019-020-230500-
NORTHWEST INDIANA

CITY           SKY/WX    TMP DP  RH WIND       PRES   REMARKS
GARY*            N/A     44  37  76 NE9       30.24F
MICHIGAN CITY* NOT AVBL
RENSSELAER*    NOT AVBL
VALPARAISO       N/A     48  26  42 E12       30.23F
$$

LMZ740>746-230500-
SOUTHERN LAKE MICHIGAN

STATION/POSITION TIME  SKY/WX   TEMP WIND        PRES    VSBY
                                AIR  DIR/SP/G
                 (UTC)          (F)  (DEG/KT/KT) (MB)    (MI)
HARRISON CRIB    0340            43   50/ 17/ 18   N/A
BURNHAM HARBOR   0400            41  360/  7/ 13   N/A
CALUMET HARBOR   0330            42   20/  9/ 13 1023.6F
BURNS HARBOR     0340            42   70/  8/ 10 1024.4F
MICHIGAN CITY    0340            42   30/  8/  8   N/A
$$

ABBREVIATIONS USED IN REMARKS
   TC - TEMPERATURE IN CELSIUS
  WCI - WIND CHILL INDEX
   HX - HEAT INDEX
  VSB - VISIBILITY
$$



USA.gov is the U.S. government's official web portal to all federal, state and local government web resources and services.